Data supplied by UK-AIR on 9/6/2008
All Data GMT hour ending 
Status: R =Ratified P=Provisional,P*=As supplied
,,Camden Kerbside,,,,,,,,,,,,,,,,,,,,,,,
Date,time,"PM10 particulate matter (Hourly measured)",status,unit,"Nitric oxide",status,unit,"Nitrogen dioxide",status,unit,"Nitrogen oxides as nitrogen dioxide",status,unit
 
01-01-2007,01:00,36,R,ugm-3 (GRAV EQ),4,R,ugm-3,8,R,ugm-3,13,R,ugm-3
01-01-2007,02:00,13,R,ugm-3 (GRAV EQ),4,R,ugm-3,11,R,ugm-3,17,R,ugm-3
01-01-2007,03:00,12,R,ugm-3 (GRAV EQ),4,R,ugm-3,11,R,ugm-3,17,R,ugm-3
01-01-2007,04:00,13,R,ugm-3 (GRAV EQ),4,R,ugm-3,8,R,ugm-3,13,R,ugm-3
01-01-2007,05:00,13,R,ugm-3 (GRAV EQ),3,R,ugm-3,10,R,ugm-3,13,R,ugm-3
01-01-2007,06:00,5,R,ugm-3 (GRAV EQ),3,R,ugm-3,11,R,ugm-3,15,R,ugm-3
01-01-2007,07:00,7,R,ugm-3 (GRAV EQ),3,R,ugm-3,21,R,ugm-3,25,R,ugm-3
01-01-2007,08:00,8,R,ugm-3 (GRAV EQ),3,R,ugm-3,21,R,ugm-3,25,R,ugm-3
01-01-2007,09:00,10,R,ugm-3 (GRAV EQ),3,R,ugm-3,15,R,ugm-3,19,R,ugm-3
01-01-2007,10:00,12,R,ugm-3 (GRAV EQ),6,R,ugm-3,15,R,ugm-3,25,R,ugm-3
01-01-2007,11:00,16,R,ugm-3 (GRAV EQ),6,R,ugm-3,13,R,ugm-3,23,R,ugm-3
01-01-2007,12:00,17,R,ugm-3 (GRAV EQ),9,R,ugm-3,17,R,ugm-3,31,R,ugm-3
01-01-2007,13:00,26,R,ugm-3 (GRAV EQ),16,R,ugm-3,29,R,ugm-3,53,R,ugm-3
01-01-2007,14:00,29,R,ugm-3 (GRAV EQ),19,R,ugm-3,29,R,ugm-3,57,R,ugm-3
01-01-2007,15:00,34,R,ugm-3 (GRAV EQ),24,R,ugm-3,40,R,ugm-3,76,R,ugm-3
01-01-2007,16:00,36,R,ugm-3 (GRAV EQ),30,R,ugm-3,55,R,ugm-3,101,R,ugm-3
01-01-2007,17:00,43,R,ugm-3 (GRAV EQ),26,R,ugm-3,57,R,ugm-3,97,R,ugm-3
01-01-2007,18:00,18,R,ugm-3 (GRAV EQ),23,R,ugm-3,52,R,ugm-3,86,R,ugm-3
01-01-2007,19:00,10,R,ugm-3 (GRAV EQ),11,R,ugm-3,36,R,ugm-3,53,R,ugm-3
01-01-2007,20:00,10,R,ugm-3 (GRAV EQ),9,R,ugm-3,34,R,ugm-3,48,R,ugm-3
01-01-2007,21:00,10,R,ugm-3 (GRAV EQ),6,R,ugm-3,32,R,ugm-3,42,R,ugm-3
01-01-2007,22:00,8,R,ugm-3 (GRAV EQ),5,R,ugm-3,23,R,ugm-3,31,R,ugm-3
01-01-2007,23:00,10,R,ugm-3 (GRAV EQ),5,R,ugm-3,25,R,ugm-3,32,R,ugm-3
01-01-2007,24:00,13,R,ugm-3 (GRAV EQ),5,R,ugm-3,21,R,ugm-3,29,R,ugm-3
02-01-2007,01:00,14,R,ugm-3 (GRAV EQ),5,R,ugm-3,23,R,ugm-3,31,R,ugm-3
02-01-2007,02:00,13,R,ugm-3 (GRAV EQ),3,R,ugm-3,19,R,ugm-3,23,R,ugm-3
02-01-2007,03:00,13,R,ugm-3 (GRAV EQ),1,R,ugm-3,11,R,ugm-3,13,R,ugm-3
02-01-2007,04:00,16,R,ugm-3 (GRAV EQ),1,R,ugm-3,10,R,ugm-3,11,R,ugm-3
02-01-2007,05:00,17,R,ugm-3 (GRAV EQ),4,R,ugm-3,25,R,ugm-3,31,R,ugm-3
02-01-2007,06:00,18,R,ugm-3 (GRAV EQ),8,R,ugm-3,34,R,ugm-3,46,R,ugm-3
02-01-2007,07:00,18,R,ugm-3 (GRAV EQ),21,R,ugm-3,57,R,ugm-3,90,R,ugm-3
02-01-2007,08:00,17,R,ugm-3 (GRAV EQ),13,R,ugm-3,42,R,ugm-3,61,R,ugm-3
02-01-2007,09:00,18,R,ugm-3 (GRAV EQ),13,R,ugm-3,36,R,ugm-3,55,R,ugm-3
02-01-2007,10:00,20,R,ugm-3 (GRAV EQ),14,R,ugm-3,32,R,ugm-3,53,R,ugm-3
02-01-2007,11:00,18,R,ugm-3 (GRAV EQ),16,R,ugm-3,31,R,ugm-3,55,R,ugm-3
02-01-2007,12:00,21,R,ugm-3 (GRAV EQ),15,R,ugm-3,31,R,ugm-3,53,R,ugm-3
02-01-2007,13:00,18,R,ugm-3 (GRAV EQ),14,R,ugm-3,25,R,ugm-3,46,R,ugm-3
02-01-2007,14:00,21,R,ugm-3 (GRAV EQ),13,R,ugm-3,23,R,ugm-3,42,R,ugm-3
02-01-2007,15:00,23,R,ugm-3 (GRAV EQ),15,R,ugm-3,27,R,ugm-3,50,R,ugm-3
02-01-2007,16:00,26,R,ugm-3 (GRAV EQ),21,R,ugm-3,34,R,ugm-3,67,R,ugm-3
02-01-2007,17:00,27,R,ugm-3 (GRAV EQ),23,R,ugm-3,46,R,ugm-3,80,R,ugm-3
02-01-2007,18:00,29,R,ugm-3 (GRAV EQ),24,R,ugm-3,48,R,ugm-3,84,R,ugm-3
02-01-2007,19:00,29,R,ugm-3 (GRAV EQ),29,R,ugm-3,61,R,ugm-3,105,R,ugm-3
02-01-2007,20:00,30,R,ugm-3 (GRAV EQ),26,R,ugm-3,67,R,ugm-3,107,R,ugm-3
02-01-2007,21:00,31,R,ugm-3 (GRAV EQ),33,R,ugm-3,71,R,ugm-3,120,R,ugm-3
02-01-2007,22:00,31,R,ugm-3 (GRAV EQ),34,R,ugm-3,73,R,ugm-3,124,R,ugm-3
02-01-2007,23:00,30,R,ugm-3 (GRAV EQ),35,R,ugm-3,73,R,ugm-3,126,R,ugm-3
02-01-2007,24:00,30,R,ugm-3 (GRAV EQ),31,R,ugm-3,73,R,ugm-3,120,R,ugm-3
03-01-2007,01:00,26,R,ugm-3 (GRAV EQ),19,R,ugm-3,59,R,ugm-3,88,R,ugm-3
03-01-2007,02:00,26,R,ugm-3 (GRAV EQ),8,R,ugm-3,46,R,ugm-3,57,R,ugm-3
03-01-2007,03:00,26,R,ugm-3 (GRAV EQ),13,R,ugm-3,48,R,ugm-3,67,R,ugm-3
03-01-2007,04:00,26,R,ugm-3 (GRAV EQ),13,R,ugm-3,42,R,ugm-3,61,R,ugm-3
03-01-2007,05:00,29,R,ugm-3 (GRAV EQ),14,R,ugm-3,40,R,ugm-3,61,R,ugm-3
03-01-2007,06:00,27,R,ugm-3 (GRAV EQ),10,R,ugm-3,32,R,ugm-3,48,R,ugm-3
03-01-2007,07:00,30,R,ugm-3 (GRAV EQ),26,R,ugm-3,55,R,ugm-3,96,R,ugm-3
03-01-2007,08:00,33,R,ugm-3 (GRAV EQ),59,R,ugm-3,88,R,ugm-3,178,R,ugm-3
03-01-2007,09:00,34,R,ugm-3 (GRAV EQ),61,R,ugm-3,88,R,ugm-3,181,R,ugm-3
03-01-2007,10:00,35,R,ugm-3 (GRAV EQ),55,R,ugm-3,78,R,ugm-3,162,R,ugm-3
03-01-2007,11:00,34,R,ugm-3 (GRAV EQ),44,R,ugm-3,73,R,ugm-3,139,R,ugm-3
03-01-2007,12:00,33,R,ugm-3 (GRAV EQ),41,R,ugm-3,67,R,ugm-3,130,R,ugm-3
03-01-2007,13:00,29,R,ugm-3 (GRAV EQ),35,R,ugm-3,57,R,ugm-3,111,R,ugm-3
03-01-2007,14:00,34,R,ugm-3 (GRAV EQ),38,R,ugm-3,59,R,ugm-3,117,R,ugm-3
03-01-2007,15:00,33,R,ugm-3 (GRAV EQ),28,R,ugm-3,48,R,ugm-3,90,R,ugm-3
03-01-2007,16:00,25,R,ugm-3 (GRAV EQ),30,R,ugm-3,53,R,ugm-3,99,R,ugm-3
03-01-2007,17:00,21,R,ugm-3 (GRAV EQ),25,R,ugm-3,50,R,ugm-3,88,R,ugm-3
03-01-2007,18:00,21,R,ugm-3 (GRAV EQ),26,R,ugm-3,46,R,ugm-3,86,R,ugm-3
03-01-2007,19:00,26,R,ugm-3 (GRAV EQ),25,R,ugm-3,44,R,ugm-3,82,R,ugm-3
03-01-2007,20:00,29,R,ugm-3 (GRAV EQ),21,R,ugm-3,38,R,ugm-3,71,R,ugm-3
03-01-2007,21:00,22,R,ugm-3 (GRAV EQ),18,R,ugm-3,34,R,ugm-3,61,R,ugm-3
03-01-2007,22:00,14,R,ugm-3 (GRAV EQ),16,R,ugm-3,32,R,ugm-3,57,R,ugm-3
03-01-2007,23:00,17,R,ugm-3 (GRAV EQ),16,R,ugm-3,34,R,ugm-3,59,R,ugm-3
03-01-2007,24:00,22,R,ugm-3 (GRAV EQ),10,R,ugm-3,25,R,ugm-3,40,R,ugm-3
04-01-2007,01:00,20,R,ugm-3 (GRAV EQ),4,R,ugm-3,11,R,ugm-3,17,R,ugm-3
04-01-2007,02:00,16,R,ugm-3 (GRAV EQ),1,R,ugm-3,6,R,ugm-3,8,R,ugm-3
04-01-2007,03:00,13,R,ugm-3 (GRAV EQ),1,R,ugm-3,6,R,ugm-3,8,R,ugm-3
04-01-2007,04:00,12,R,ugm-3 (GRAV EQ),1,R,ugm-3,8,R,ugm-3,10,R,ugm-3
04-01-2007,05:00,16,R,ugm-3 (GRAV EQ),1,R,ugm-3,10,R,ugm-3,11,R,ugm-3
04-01-2007,06:00,18,R,ugm-3 (GRAV EQ),3,R,ugm-3,17,R,ugm-3,21,R,ugm-3
04-01-2007,07:00,17,R,ugm-3 (GRAV EQ),9,R,ugm-3,29,R,ugm-3,42,R,ugm-3
04-01-2007,08:00,20,R,ugm-3 (GRAV EQ),15,R,ugm-3,48,R,ugm-3,71,R,ugm-3
04-01-2007,09:00,18,R,ugm-3 (GRAV EQ),20,R,ugm-3,52,R,ugm-3,82,R,ugm-3
04-01-2007,10:00,18,R,ugm-3 (GRAV EQ),21,R,ugm-3,46,R,ugm-3,78,R,ugm-3
04-01-2007,11:00,20,R,ugm-3 (GRAV EQ),20,R,ugm-3,40,R,ugm-3,71,R,ugm-3
04-01-2007,12:00,18,R,ugm-3 (GRAV EQ),18,R,ugm-3,34,R,ugm-3,61,R,ugm-3
04-01-2007,13:00,18,R,ugm-3 (GRAV EQ),20,R,ugm-3,36,R,ugm-3,67,R,ugm-3
04-01-2007,14:00,20,R,ugm-3 (GRAV EQ),19,R,ugm-3,38,R,ugm-3,67,R,ugm-3
04-01-2007,15:00,18,R,ugm-3 (GRAV EQ),23,R,ugm-3,46,R,ugm-3,80,R,ugm-3
04-01-2007,16:00,20,R,ugm-3 (GRAV EQ),19,R,ugm-3,44,R,ugm-3,73,R,ugm-3
04-01-2007,17:00,25,R,ugm-3 (GRAV EQ),23,R,ugm-3,63,R,ugm-3,97,R,ugm-3
04-01-2007,18:00,18,R,ugm-3 (GRAV EQ),19,R,ugm-3,59,R,ugm-3,88,R,ugm-3
04-01-2007,19:00,21,R,ugm-3 (GRAV EQ),25,R,ugm-3,67,R,ugm-3,105,R,ugm-3
04-01-2007,20:00,17,R,ugm-3 (GRAV EQ),15,R,ugm-3,50,R,ugm-3,73,R,ugm-3
04-01-2007,21:00,18,R,ugm-3 (GRAV EQ),15,R,ugm-3,52,R,ugm-3,74,R,ugm-3
04-01-2007,22:00,18,R,ugm-3 (GRAV EQ),14,R,ugm-3,57,R,ugm-3,78,R,ugm-3
04-01-2007,23:00,21,R,ugm-3 (GRAV EQ),13,R,ugm-3,55,R,ugm-3,74,R,ugm-3
04-01-2007,24:00,25,R,ugm-3 (GRAV EQ),16,R,ugm-3,61,R,ugm-3,86,R,ugm-3
05-01-2007,01:00,23,R,ugm-3 (GRAV EQ),18,R,ugm-3,59,R,ugm-3,86,R,ugm-3
05-01-2007,02:00,20,R,ugm-3 (GRAV EQ),8,R,ugm-3,42,R,ugm-3,53,R,ugm-3
05-01-2007,03:00,17,R,ugm-3 (GRAV EQ),8,R,ugm-3,34,R,ugm-3,46,R,ugm-3
05-01-2007,04:00,16,R,ugm-3 (GRAV EQ),4,R,ugm-3,17,R,ugm-3,23,R,ugm-3
05-01-2007,05:00,13,R,ugm-3 (GRAV EQ),9,R,ugm-3,29,R,ugm-3,42,R,ugm-3
05-01-2007,06:00,12,R,ugm-3 (GRAV EQ),16,R,ugm-3,36,R,ugm-3,61,R,ugm-3
05-01-2007,07:00,9,R,ugm-3 (GRAV EQ),18,R,ugm-3,46,R,ugm-3,73,R,ugm-3
05-01-2007,08:00,13,R,ugm-3 (GRAV EQ),28,R,ugm-3,67,R,ugm-3,109,R,ugm-3
05-01-2007,09:00,21,R,ugm-3 (GRAV EQ),61,R,ugm-3,97,R,ugm-3,191,R,ugm-3
05-01-2007,10:00,23,R,ugm-3 (GRAV EQ),59,R,ugm-3,94,R,ugm-3,183,R,ugm-3
05-01-2007,11:00,21,R,ugm-3 (GRAV EQ),39,R,ugm-3,71,R,ugm-3,130,R,ugm-3
05-01-2007,12:00,18,R,ugm-3 (GRAV EQ),41,R,ugm-3,71,R,ugm-3,134,R,ugm-3
05-01-2007,13:00,21,R,ugm-3 (GRAV EQ),40,R,ugm-3,67,R,ugm-3,128,R,ugm-3
05-01-2007,14:00,26,R,ugm-3 (GRAV EQ),58,R,ugm-3,86,R,ugm-3,174,R,ugm-3
05-01-2007,15:00,29,R,ugm-3 (GRAV EQ),64,R,ugm-3,96,R,ugm-3,193,R,ugm-3
05-01-2007,16:00,23,R,ugm-3 (GRAV EQ),56,R,ugm-3,96,R,ugm-3,181,R,ugm-3
05-01-2007,17:00,23,R,ugm-3 (GRAV EQ),63,R,ugm-3,94,R,ugm-3,189,R,ugm-3
05-01-2007,18:00,18,R,ugm-3 (GRAV EQ),54,R,ugm-3,90,R,ugm-3,172,R,ugm-3
05-01-2007,19:00,12,R,ugm-3 (GRAV EQ),29,R,ugm-3,74,R,ugm-3,118,R,ugm-3
05-01-2007,20:00,9,R,ugm-3 (GRAV EQ),18,R,ugm-3,52,R,ugm-3,78,R,ugm-3
05-01-2007,21:00,9,R,ugm-3 (GRAV EQ),11,R,ugm-3,38,R,ugm-3,55,R,ugm-3
05-01-2007,22:00,17,R,ugm-3 (GRAV EQ),15,R,ugm-3,52,R,ugm-3,74,R,ugm-3
05-01-2007,23:00,20,R,ugm-3 (GRAV EQ),11,R,ugm-3,53,R,ugm-3,71,R,ugm-3
05-01-2007,24:00,22,R,ugm-3 (GRAV EQ),18,R,ugm-3,57,R,ugm-3,84,R,ugm-3
06-01-2007,01:00,23,R,ugm-3 (GRAV EQ),25,R,ugm-3,61,R,ugm-3,99,R,ugm-3
06-01-2007,02:00,25,R,ugm-3 (GRAV EQ),31,R,ugm-3,63,R,ugm-3,111,R,ugm-3
06-01-2007,03:00,25,R,ugm-3 (GRAV EQ),14,R,ugm-3,59,R,ugm-3,80,R,ugm-3
06-01-2007,04:00,25,R,ugm-3 (GRAV EQ),23,R,ugm-3,52,R,ugm-3,86,R,ugm-3
06-01-2007,05:00,22,R,ugm-3 (GRAV EQ),15,R,ugm-3,40,R,ugm-3,63,R,ugm-3
06-01-2007,06:00,25,R,ugm-3 (GRAV EQ),20,R,ugm-3,57,R,ugm-3,88,R,ugm-3
06-01-2007,07:00,33,R,ugm-3 (GRAV EQ),39,R,ugm-3,76,R,ugm-3,136,R,ugm-3
06-01-2007,08:00,36,R,ugm-3 (GRAV EQ),56,R,ugm-3,94,R,ugm-3,180,R,ugm-3
06-01-2007,09:00,34,R,ugm-3 (GRAV EQ),63,R,ugm-3,97,R,ugm-3,193,R,ugm-3
06-01-2007,10:00,31,R,ugm-3 (GRAV EQ),83,R,ugm-3,107,R,ugm-3,233,R,ugm-3
06-01-2007,11:00,22,R,ugm-3 (GRAV EQ),80,R,ugm-3,105,R,ugm-3,227,R,ugm-3
06-01-2007,12:00,25,R,ugm-3 (GRAV EQ),151,R,ugm-3,149,R,ugm-3,380,R,ugm-3
06-01-2007,13:00,26,R,ugm-3 (GRAV EQ),140,R,ugm-3,145,R,ugm-3,359,R,ugm-3
06-01-2007,14:00,18,R,ugm-3 (GRAV EQ),68,R,ugm-3,103,R,ugm-3,206,R,ugm-3
06-01-2007,15:00,23,R,ugm-3 (GRAV EQ),184,R,ugm-3,153,R,ugm-3,434,R,ugm-3
06-01-2007,16:00,31,R,ugm-3 (GRAV EQ),228,R,ugm-3,178,R,ugm-3,525,R,ugm-3
06-01-2007,17:00,17,R,ugm-3 (GRAV EQ),69,R,ugm-3,96,R,ugm-3,201,R,ugm-3
06-01-2007,18:00,13,R,ugm-3 (GRAV EQ),51,R,ugm-3,82,R,ugm-3,160,R,ugm-3
06-01-2007,19:00,14,R,ugm-3 (GRAV EQ),30,R,ugm-3,78,R,ugm-3,124,R,ugm-3
06-01-2007,20:00,14,R,ugm-3 (GRAV EQ),21,R,ugm-3,65,R,ugm-3,97,R,ugm-3
06-01-2007,21:00,17,R,ugm-3 (GRAV EQ),23,R,ugm-3,63,R,ugm-3,97,R,ugm-3
06-01-2007,22:00,17,R,ugm-3 (GRAV EQ),21,R,ugm-3,65,R,ugm-3,97,R,ugm-3
06-01-2007,23:00,20,R,ugm-3 (GRAV EQ),33,R,ugm-3,69,R,ugm-3,118,R,ugm-3
06-01-2007,24:00,21,R,ugm-3 (GRAV EQ),34,R,ugm-3,71,R,ugm-3,122,R,ugm-3
07-01-2007,01:00,17,R,ugm-3 (GRAV EQ),16,R,ugm-3,46,R,ugm-3,71,R,ugm-3
07-01-2007,02:00,17,R,ugm-3 (GRAV EQ),14,R,ugm-3,36,R,ugm-3,57,R,ugm-3
07-01-2007,03:00,17,R,ugm-3 (GRAV EQ),9,R,ugm-3,29,R,ugm-3,42,R,ugm-3
07-01-2007,04:00,17,R,ugm-3 (GRAV EQ),5,R,ugm-3,17,R,ugm-3,25,R,ugm-3
07-01-2007,05:00,17,R,ugm-3 (GRAV EQ),5,R,ugm-3,17,R,ugm-3,25,R,ugm-3
07-01-2007,06:00,20,R,ugm-3 (GRAV EQ),4,R,ugm-3,13,R,ugm-3,19,R,ugm-3
07-01-2007,07:00,22,R,ugm-3 (GRAV EQ),8,R,ugm-3,23,R,ugm-3,34,R,ugm-3
07-01-2007,08:00,26,R,ugm-3 (GRAV EQ),8,R,ugm-3,25,R,ugm-3,36,R,ugm-3
07-01-2007,09:00,26,R,ugm-3 (GRAV EQ),13,R,ugm-3,32,R,ugm-3,52,R,ugm-3
07-01-2007,10:00,29,R,ugm-3 (GRAV EQ),15,R,ugm-3,38,R,ugm-3,61,R,ugm-3
07-01-2007,11:00,26,R,ugm-3 (GRAV EQ),23,R,ugm-3,48,R,ugm-3,82,R,ugm-3
07-01-2007,12:00,25,R,ugm-3 (GRAV EQ),21,R,ugm-3,44,R,ugm-3,76,R,ugm-3
07-01-2007,13:00,29,R,ugm-3 (GRAV EQ),25,R,ugm-3,52,R,ugm-3,90,R,ugm-3
07-01-2007,14:00,27,R,ugm-3 (GRAV EQ),21,R,ugm-3,42,R,ugm-3,74,R,ugm-3
07-01-2007,15:00,29,R,ugm-3 (GRAV EQ),23,R,ugm-3,40,R,ugm-3,74,R,ugm-3
07-01-2007,16:00,26,R,ugm-3 (GRAV EQ),21,R,ugm-3,42,R,ugm-3,74,R,ugm-3
07-01-2007,17:00,25,R,ugm-3 (GRAV EQ),19,R,ugm-3,40,R,ugm-3,69,R,ugm-3
07-01-2007,18:00,22,R,ugm-3 (GRAV EQ),15,R,ugm-3,34,R,ugm-3,57,R,ugm-3
07-01-2007,19:00,22,R,ugm-3 (GRAV EQ),16,R,ugm-3,36,R,ugm-3,61,R,ugm-3
07-01-2007,20:00,18,R,ugm-3 (GRAV EQ),15,R,ugm-3,34,R,ugm-3,57,R,ugm-3
07-01-2007,21:00,13,R,ugm-3 (GRAV EQ),13,R,ugm-3,29,R,ugm-3,48,R,ugm-3
07-01-2007,22:00,9,R,ugm-3 (GRAV EQ),10,R,ugm-3,27,R,ugm-3,42,R,ugm-3
07-01-2007,23:00,8,R,ugm-3 (GRAV EQ),8,R,ugm-3,21,R,ugm-3,32,R,ugm-3
07-01-2007,24:00,8,R,ugm-3 (GRAV EQ),9,R,ugm-3,17,R,ugm-3,31,R,ugm-3
08-01-2007,01:00,8,R,ugm-3 (GRAV EQ),6,R,ugm-3,13,R,ugm-3,23,R,ugm-3
08-01-2007,02:00,8,R,ugm-3 (GRAV EQ),3,R,ugm-3,10,R,ugm-3,13,R,ugm-3
08-01-2007,03:00,7,R,ugm-3 (GRAV EQ),1,R,ugm-3,10,R,ugm-3,11,R,ugm-3
08-01-2007,04:00,7,R,ugm-3 (GRAV EQ),1,R,ugm-3,13,R,ugm-3,15,R,ugm-3
08-01-2007,05:00,5,R,ugm-3 (GRAV EQ),1,R,ugm-3,10,R,ugm-3,11,R,ugm-3
08-01-2007,06:00,5,R,ugm-3 (GRAV EQ),4,R,ugm-3,21,R,ugm-3,27,R,ugm-3
08-01-2007,07:00,10,R,ugm-3 (GRAV EQ),24,R,ugm-3,61,R,ugm-3,97,R,ugm-3
08-01-2007,08:00,17,R,ugm-3 (GRAV EQ),58,R,ugm-3,99,R,ugm-3,187,R,ugm-3
08-01-2007,09:00,23,R,ugm-3 (GRAV EQ),101,R,ugm-3,113,R,ugm-3,267,R,ugm-3
08-01-2007,10:00,30,R,ugm-3 (GRAV EQ),84,R,ugm-3,101,R,ugm-3,229,R,ugm-3
08-01-2007,11:00,31,R,ugm-3 (GRAV EQ),58,R,ugm-3,78,R,ugm-3,166,R,ugm-3
08-01-2007,12:00,29,R,ugm-3 (GRAV EQ),43,R,ugm-3,67,R,ugm-3,132,R,ugm-3
08-01-2007,13:00,22,R,ugm-3 (GRAV EQ),50,R,ugm-3,80,R,ugm-3,157,R,ugm-3
08-01-2007,14:00,27,R,ugm-3 (GRAV EQ),45,R,ugm-3,76,R,ugm-3,145,R,ugm-3
08-01-2007,15:00,16,R,ugm-3 (GRAV EQ),30,R,ugm-3,50,R,ugm-3,96,R,ugm-3
08-01-2007,16:00,16,R,ugm-3 (GRAV EQ),46,R,ugm-3,73,R,ugm-3,143,R,ugm-3
08-01-2007,17:00,23,R,ugm-3 (GRAV EQ),46,R,ugm-3,78,R,ugm-3,149,R,ugm-3
08-01-2007,18:00,21,R,ugm-3 (GRAV EQ),30,R,ugm-3,65,R,ugm-3,111,R,ugm-3
08-01-2007,19:00,14,R,ugm-3 (GRAV EQ),23,R,ugm-3,55,R,ugm-3,90,R,ugm-3
08-01-2007,20:00,16,R,ugm-3 (GRAV EQ),16,R,ugm-3,46,R,ugm-3,71,R,ugm-3
08-01-2007,21:00,12,R,ugm-3 (GRAV EQ),10,R,ugm-3,31,R,ugm-3,46,R,ugm-3
08-01-2007,22:00,14,R,ugm-3 (GRAV EQ),14,R,ugm-3,32,R,ugm-3,53,R,ugm-3
08-01-2007,23:00,16,R,ugm-3 (GRAV EQ),13,R,ugm-3,31,R,ugm-3,50,R,ugm-3
08-01-2007,24:00,10,R,ugm-3 (GRAV EQ),11,R,ugm-3,27,R,ugm-3,44,R,ugm-3
09-01-2007,01:00,13,R,ugm-3 (GRAV EQ),5,R,ugm-3,15,R,ugm-3,23,R,ugm-3
09-01-2007,02:00,21,R,ugm-3 (GRAV EQ),3,R,ugm-3,10,R,ugm-3,13,R,ugm-3
09-01-2007,03:00,16,R,ugm-3 (GRAV EQ),1,R,ugm-3,6,R,ugm-3,8,R,ugm-3
09-01-2007,04:00,18,R,ugm-3 (GRAV EQ),1,R,ugm-3,6,R,ugm-3,8,R,ugm-3
09-01-2007,05:00,25,R,ugm-3 (GRAV EQ),4,R,ugm-3,10,R,ugm-3,15,R,ugm-3
09-01-2007,06:00,29,R,ugm-3 (GRAV EQ),6,R,ugm-3,15,R,ugm-3,25,R,ugm-3
09-01-2007,07:00,33,R,ugm-3 (GRAV EQ),23,R,ugm-3,36,R,ugm-3,71,R,ugm-3
09-01-2007,08:00,22,R,ugm-3 (GRAV EQ),30,R,ugm-3,53,R,ugm-3,99,R,ugm-3
09-01-2007,09:00,35,R,ugm-3 (GRAV EQ),34,R,ugm-3,61,R,ugm-3,113,R,ugm-3
09-01-2007,10:00,33,R,ugm-3 (GRAV EQ),31,R,ugm-3,55,R,ugm-3,103,R,ugm-3
09-01-2007,11:00,34,R,ugm-3 (GRAV EQ),33,R,ugm-3,57,R,ugm-3,107,R,ugm-3
09-01-2007,12:00,31,R,ugm-3 (GRAV EQ),34,R,ugm-3,55,R,ugm-3,107,R,ugm-3
09-01-2007,13:00,40,R,ugm-3 (GRAV EQ),29,R,ugm-3,52,R,ugm-3,96,R,ugm-3
09-01-2007,14:00,35,R,ugm-3 (GRAV EQ),25,R,ugm-3,46,R,ugm-3,84,R,ugm-3
09-01-2007,15:00,27,R,ugm-3 (GRAV EQ),33,R,ugm-3,52,R,ugm-3,101,R,ugm-3
09-01-2007,16:00,27,R,ugm-3 (GRAV EQ),30,R,ugm-3,57,R,ugm-3,103,R,ugm-3
09-01-2007,17:00,25,R,ugm-3 (GRAV EQ),31,R,ugm-3,57,R,ugm-3,105,R,ugm-3
09-01-2007,18:00,31,R,ugm-3 (GRAV EQ),28,R,ugm-3,52,R,ugm-3,94,R,ugm-3
09-01-2007,19:00,40,R,ugm-3 (GRAV EQ),31,R,ugm-3,59,R,ugm-3,107,R,ugm-3
09-01-2007,20:00,39,R,ugm-3 (GRAV EQ),20,R,ugm-3,42,R,ugm-3,73,R,ugm-3
09-01-2007,21:00,36,R,ugm-3 (GRAV EQ),20,R,ugm-3,36,R,ugm-3,67,R,ugm-3
09-01-2007,22:00,35,R,ugm-3 (GRAV EQ),16,R,ugm-3,29,R,ugm-3,53,R,ugm-3
09-01-2007,23:00,31,R,ugm-3 (GRAV EQ),14,R,ugm-3,27,R,ugm-3,48,R,ugm-3
09-01-2007,24:00,27,R,ugm-3 (GRAV EQ),11,R,ugm-3,19,R,ugm-3,36,R,ugm-3
10-01-2007,01:00,23,R,ugm-3 (GRAV EQ),6,R,ugm-3,15,R,ugm-3,25,R,ugm-3
10-01-2007,02:00,25,R,ugm-3 (GRAV EQ),3,R,ugm-3,10,R,ugm-3,13,R,ugm-3
10-01-2007,03:00,20,R,ugm-3 (GRAV EQ),3,R,ugm-3,8,R,ugm-3,11,R,ugm-3
10-01-2007,04:00,12,R,ugm-3 (GRAV EQ),4,R,ugm-3,8,R,ugm-3,13,R,ugm-3
10-01-2007,05:00,10,R,ugm-3 (GRAV EQ),5,R,ugm-3,13,R,ugm-3,21,R,ugm-3
10-01-2007,06:00,3,R,ugm-3 (GRAV EQ),4,R,ugm-3,17,R,ugm-3,23,R,ugm-3
10-01-2007,07:00,9,R,ugm-3 (GRAV EQ),31,R,ugm-3,52,R,ugm-3,99,R,ugm-3
10-01-2007,08:00,20,R,ugm-3 (GRAV EQ),46,R,ugm-3,71,R,ugm-3,141,R,ugm-3
10-01-2007,09:00,23,R,ugm-3 (GRAV EQ),56,R,ugm-3,82,R,ugm-3,168,R,ugm-3
10-01-2007,10:00,34,R,ugm-3 (GRAV EQ),64,R,ugm-3,86,R,ugm-3,183,R,ugm-3
10-01-2007,11:00,35,R,ugm-3 (GRAV EQ),45,R,ugm-3,65,R,ugm-3,134,R,ugm-3
10-01-2007,12:00,16,R,ugm-3 (GRAV EQ),54,R,ugm-3,73,R,ugm-3,155,R,ugm-3
10-01-2007,13:00,13,R,ugm-3 (GRAV EQ),25,R,ugm-3,42,R,ugm-3,80,R,ugm-3
10-01-2007,14:00,12,R,ugm-3 (GRAV EQ),19,R,ugm-3,32,R,ugm-3,61,R,ugm-3
10-01-2007,15:00,17,R,ugm-3 (GRAV EQ),18,R,ugm-3,32,R,ugm-3,59,R,ugm-3
10-01-2007,16:00,21,R,ugm-3 (GRAV EQ),19,R,ugm-3,38,R,ugm-3,67,R,ugm-3
10-01-2007,17:00,21,R,ugm-3 (GRAV EQ),19,R,ugm-3,46,R,ugm-3,74,R,ugm-3
10-01-2007,18:00,20,R,ugm-3 (GRAV EQ),20,R,ugm-3,53,R,ugm-3,84,R,ugm-3
10-01-2007,19:00,20,R,ugm-3 (GRAV EQ),33,R,ugm-3,73,R,ugm-3,122,R,ugm-3
10-01-2007,20:00,23,R,ugm-3 (GRAV EQ),41,R,ugm-3,86,R,ugm-3,149,R,ugm-3
10-01-2007,21:00,18,R,ugm-3 (GRAV EQ),19,R,ugm-3,59,R,ugm-3,88,R,ugm-3
10-01-2007,22:00,20,R,ugm-3 (GRAV EQ),16,R,ugm-3,59,R,ugm-3,84,R,ugm-3
10-01-2007,23:00,26,R,ugm-3 (GRAV EQ),29,R,ugm-3,63,R,ugm-3,107,R,ugm-3
10-01-2007,24:00,26,R,ugm-3 (GRAV EQ),21,R,ugm-3,46,R,ugm-3,78,R,ugm-3
11-01-2007,01:00,26,R,ugm-3 (GRAV EQ),11,R,ugm-3,29,R,ugm-3,46,R,ugm-3
11-01-2007,02:00,23,R,ugm-3 (GRAV EQ),5,R,ugm-3,19,R,ugm-3,27,R,ugm-3
11-01-2007,03:00,18,R,ugm-3 (GRAV EQ),3,R,ugm-3,8,R,ugm-3,11,R,ugm-3
11-01-2007,04:00,22,R,ugm-3 (GRAV EQ),4,R,ugm-3,10,R,ugm-3,15,R,ugm-3
11-01-2007,05:00,26,R,ugm-3 (GRAV EQ),3,R,ugm-3,10,R,ugm-3,13,R,ugm-3
11-01-2007,06:00,27,R,ugm-3 (GRAV EQ),5,R,ugm-3,11,R,ugm-3,19,R,ugm-3
11-01-2007,07:00,26,R,ugm-3 (GRAV EQ),14,R,ugm-3,31,R,ugm-3,52,R,ugm-3
11-01-2007,08:00,22,R,ugm-3 (GRAV EQ),24,R,ugm-3,46,R,ugm-3,82,R,ugm-3
11-01-2007,09:00,26,R,ugm-3 (GRAV EQ),26,R,ugm-3,48,R,ugm-3,88,R,ugm-3
11-01-2007,10:00,20,R,ugm-3 (GRAV EQ),28,R,ugm-3,48,R,ugm-3,90,R,ugm-3
11-01-2007,11:00,18,R,ugm-3 (GRAV EQ),25,R,ugm-3,40,R,ugm-3,78,R,ugm-3
11-01-2007,12:00,20,R,ugm-3 (GRAV EQ),21,R,ugm-3,40,R,ugm-3,73,R,ugm-3
11-01-2007,13:00,14,R,ugm-3 (GRAV EQ),19,R,ugm-3,36,R,ugm-3,65,R,ugm-3
11-01-2007,14:00,26,R,ugm-3 (GRAV EQ),15,R,ugm-3,29,R,ugm-3,52,R,ugm-3
11-01-2007,15:00,39,R,ugm-3 (GRAV EQ),13,R,ugm-3,23,R,ugm-3,42,R,ugm-3
11-01-2007,16:00,40,R,ugm-3 (GRAV EQ),,,,,,,,,
11-01-2007,17:00,29,R,ugm-3 (GRAV EQ),14,R,ugm-3,40,R,ugm-3,61,R,ugm-3
11-01-2007,18:00,29,R,ugm-3 (GRAV EQ),14,R,ugm-3,46,R,ugm-3,67,R,ugm-3
11-01-2007,19:00,39,R,ugm-3 (GRAV EQ),16,R,ugm-3,42,R,ugm-3,67,R,ugm-3
11-01-2007,20:00,43,R,ugm-3 (GRAV EQ),11,R,ugm-3,34,R,ugm-3,52,R,ugm-3
11-01-2007,21:00,38,R,ugm-3 (GRAV EQ),9,R,ugm-3,34,R,ugm-3,48,R,ugm-3
11-01-2007,22:00,33,R,ugm-3 (GRAV EQ),9,R,ugm-3,38,R,ugm-3,52,R,ugm-3
11-01-2007,23:00,34,R,ugm-3 (GRAV EQ),9,R,ugm-3,40,R,ugm-3,53,R,ugm-3
11-01-2007,24:00,38,R,ugm-3 (GRAV EQ),11,R,ugm-3,40,R,ugm-3,57,R,ugm-3
12-01-2007,01:00,34,R,ugm-3 (GRAV EQ),8,R,ugm-3,38,R,ugm-3,50,R,ugm-3
12-01-2007,02:00,39,R,ugm-3 (GRAV EQ),5,R,ugm-3,29,R,ugm-3,36,R,ugm-3
12-01-2007,03:00,35,R,ugm-3 (GRAV EQ),5,R,ugm-3,29,R,ugm-3,36,R,ugm-3
12-01-2007,04:00,34,R,ugm-3 (GRAV EQ),4,R,ugm-3,25,R,ugm-3,31,R,ugm-3
12-01-2007,05:00,36,R,ugm-3 (GRAV EQ),6,R,ugm-3,25,R,ugm-3,34,R,ugm-3
12-01-2007,06:00,38,R,ugm-3 (GRAV EQ),11,R,ugm-3,27,R,ugm-3,44,R,ugm-3
12-01-2007,07:00,44,R,ugm-3 (GRAV EQ),21,R,ugm-3,44,R,ugm-3,76,R,ugm-3
12-01-2007,08:00,49,R,ugm-3 (GRAV EQ),44,R,ugm-3,71,R,ugm-3,138,R,ugm-3
12-01-2007,09:00,57,R,ugm-3 (GRAV EQ),54,R,ugm-3,74,R,ugm-3,157,R,ugm-3
12-01-2007,10:00,66,R,ugm-3 (GRAV EQ),51,R,ugm-3,74,R,ugm-3,153,R,ugm-3
12-01-2007,11:00,60,R,ugm-3 (GRAV EQ),45,R,ugm-3,69,R,ugm-3,138,R,ugm-3
12-01-2007,12:00,40,R,ugm-3 (GRAV EQ),46,R,ugm-3,69,R,ugm-3,139,R,ugm-3
12-01-2007,13:00,14,R,ugm-3 (GRAV EQ),30,R,ugm-3,53,R,ugm-3,99,R,ugm-3
12-01-2007,14:00,13,R,ugm-3 (GRAV EQ),29,R,ugm-3,50,R,ugm-3,94,R,ugm-3
12-01-2007,15:00,10,R,ugm-3 (GRAV EQ),23,R,ugm-3,44,R,ugm-3,78,R,ugm-3
12-01-2007,16:00,10,R,ugm-3 (GRAV EQ),26,R,ugm-3,50,R,ugm-3,90,R,ugm-3
12-01-2007,17:00,10,R,ugm-3 (GRAV EQ),20,R,ugm-3,40,R,ugm-3,71,R,ugm-3
12-01-2007,18:00,10,R,ugm-3 (GRAV EQ),15,R,ugm-3,40,R,ugm-3,63,R,ugm-3
12-01-2007,19:00,9,R,ugm-3 (GRAV EQ),15,R,ugm-3,38,R,ugm-3,61,R,ugm-3
12-01-2007,20:00,9,R,ugm-3 (GRAV EQ),13,R,ugm-3,34,R,ugm-3,53,R,ugm-3
12-01-2007,21:00,10,R,ugm-3 (GRAV EQ),10,R,ugm-3,27,R,ugm-3,42,R,ugm-3
12-01-2007,22:00,12,R,ugm-3 (GRAV EQ),6,R,ugm-3,23,R,ugm-3,32,R,ugm-3
12-01-2007,23:00,9,R,ugm-3 (GRAV EQ),6,R,ugm-3,21,R,ugm-3,31,R,ugm-3
12-01-2007,24:00,9,R,ugm-3 (GRAV EQ),8,R,ugm-3,31,R,ugm-3,42,R,ugm-3
13-01-2007,01:00,8,R,ugm-3 (GRAV EQ),5,R,ugm-3,15,R,ugm-3,23,R,ugm-3
13-01-2007,02:00,9,R,ugm-3 (GRAV EQ),3,R,ugm-3,13,R,ugm-3,17,R,ugm-3
13-01-2007,03:00,10,R,ugm-3 (GRAV EQ),4,R,ugm-3,13,R,ugm-3,19,R,ugm-3
13-01-2007,04:00,9,R,ugm-3 (GRAV EQ),4,R,ugm-3,11,R,ugm-3,17,R,ugm-3
13-01-2007,05:00,9,R,ugm-3 (GRAV EQ),3,R,ugm-3,13,R,ugm-3,17,R,ugm-3
13-01-2007,06:00,10,R,ugm-3 (GRAV EQ),9,R,ugm-3,23,R,ugm-3,36,R,ugm-3
13-01-2007,07:00,13,R,ugm-3 (GRAV EQ),15,R,ugm-3,38,R,ugm-3,61,R,ugm-3
13-01-2007,08:00,12,R,ugm-3 (GRAV EQ),23,R,ugm-3,46,R,ugm-3,80,R,ugm-3
13-01-2007,09:00,9,R,ugm-3 (GRAV EQ),25,R,ugm-3,50,R,ugm-3,88,R,ugm-3
13-01-2007,10:00,14,R,ugm-3 (GRAV EQ),33,R,ugm-3,59,R,ugm-3,109,R,ugm-3
13-01-2007,11:00,21,R,ugm-3 (GRAV EQ),44,R,ugm-3,69,R,ugm-3,136,R,ugm-3
13-01-2007,12:00,14,R,ugm-3 (GRAV EQ),43,R,ugm-3,57,R,ugm-3,122,R,ugm-3
13-01-2007,13:00,14,R,ugm-3 (GRAV EQ),30,R,ugm-3,52,R,ugm-3,97,R,ugm-3
13-01-2007,14:00,18,R,ugm-3 (GRAV EQ),38,R,ugm-3,59,R,ugm-3,117,R,ugm-3
13-01-2007,15:00,20,R,ugm-3 (GRAV EQ),36,R,ugm-3,61,R,ugm-3,117,R,ugm-3
13-01-2007,16:00,16,R,ugm-3 (GRAV EQ),35,R,ugm-3,61,R,ugm-3,115,R,ugm-3
13-01-2007,17:00,10,R,ugm-3 (GRAV EQ),24,R,ugm-3,48,R,ugm-3,84,R,ugm-3
13-01-2007,18:00,22,R,ugm-3 (GRAV EQ),26,R,ugm-3,57,R,ugm-3,97,R,ugm-3
13-01-2007,19:00,22,R,ugm-3 (GRAV EQ),29,R,ugm-3,57,R,ugm-3,101,R,ugm-3
13-01-2007,20:00,23,R,ugm-3 (GRAV EQ),21,R,ugm-3,42,R,ugm-3,74,R,ugm-3
13-01-2007,21:00,21,R,ugm-3 (GRAV EQ),14,R,ugm-3,34,R,ugm-3,55,R,ugm-3
13-01-2007,22:00,8,R,ugm-3 (GRAV EQ),5,R,ugm-3,17,R,ugm-3,25,R,ugm-3
13-01-2007,23:00,12,R,ugm-3 (GRAV EQ),4,R,ugm-3,15,R,ugm-3,21,R,ugm-3
13-01-2007,24:00,13,R,ugm-3 (GRAV EQ),5,R,ugm-3,21,R,ugm-3,29,R,ugm-3
14-01-2007,01:00,13,R,ugm-3 (GRAV EQ),5,R,ugm-3,21,R,ugm-3,29,R,ugm-3
14-01-2007,02:00,14,R,ugm-3 (GRAV EQ),4,R,ugm-3,17,R,ugm-3,23,R,ugm-3
14-01-2007,03:00,16,R,ugm-3 (GRAV EQ),4,R,ugm-3,19,R,ugm-3,25,R,ugm-3
14-01-2007,04:00,17,R,ugm-3 (GRAV EQ),6,R,ugm-3,25,R,ugm-3,34,R,ugm-3
14-01-2007,05:00,20,R,ugm-3 (GRAV EQ),4,R,ugm-3,25,R,ugm-3,31,R,ugm-3
14-01-2007,06:00,22,R,ugm-3 (GRAV EQ),4,R,ugm-3,34,R,ugm-3,40,R,ugm-3
14-01-2007,07:00,22,R,ugm-3 (GRAV EQ),8,R,ugm-3,46,R,ugm-3,57,R,ugm-3
14-01-2007,08:00,23,R,ugm-3 (GRAV EQ),13,R,ugm-3,52,R,ugm-3,71,R,ugm-3
14-01-2007,09:00,22,R,ugm-3 (GRAV EQ),20,R,ugm-3,57,R,ugm-3,88,R,ugm-3
14-01-2007,10:00,25,R,ugm-3 (GRAV EQ),26,R,ugm-3,55,R,ugm-3,96,R,ugm-3
14-01-2007,11:00,25,R,ugm-3 (GRAV EQ),26,R,ugm-3,48,R,ugm-3,88,R,ugm-3
14-01-2007,12:00,29,R,ugm-3 (GRAV EQ),35,R,ugm-3,57,R,ugm-3,111,R,ugm-3
14-01-2007,13:00,29,R,ugm-3 (GRAV EQ),30,R,ugm-3,50,R,ugm-3,96,R,ugm-3
14-01-2007,14:00,22,R,ugm-3 (GRAV EQ),21,R,ugm-3,40,R,ugm-3,73,R,ugm-3
14-01-2007,15:00,21,R,ugm-3 (GRAV EQ),16,R,ugm-3,38,R,ugm-3,63,R,ugm-3
14-01-2007,16:00,23,R,ugm-3 (GRAV EQ),23,R,ugm-3,50,R,ugm-3,84,R,ugm-3
14-01-2007,17:00,23,R,ugm-3 (GRAV EQ),31,R,ugm-3,71,R,ugm-3,118,R,ugm-3
14-01-2007,18:00,31,R,ugm-3 (GRAV EQ),53,R,ugm-3,92,R,ugm-3,172,R,ugm-3
14-01-2007,19:00,38,R,ugm-3 (GRAV EQ),85,R,ugm-3,111,R,ugm-3,241,R,ugm-3
14-01-2007,20:00,36,R,ugm-3 (GRAV EQ),63,R,ugm-3,97,R,ugm-3,193,R,ugm-3
14-01-2007,21:00,31,R,ugm-3 (GRAV EQ),50,R,ugm-3,86,R,ugm-3,162,R,ugm-3
14-01-2007,22:00,29,R,ugm-3 (GRAV EQ),50,R,ugm-3,88,R,ugm-3,164,R,ugm-3